User: anonymous   Login
Location: Unspecified
(0.0000°N, 0.0000°E)
Time: 09:09:06
(UTC+00:00)
Language:

SIMPL - Orbit

View from above orbital plane
View from above orbital plane
View from above satellite
View from above satellite

Ground track
Ground track

The orbit data is extracted from the following two-line orbital elements,

1 42983U 98067NF  18293.77905497  .00003388  00000-0  52604-4 0  9990
2 42983  51.6385 108.1113 0003661 308.9204  51.1461 15.57090945 55781
Epoch (UTC): 20 October 2018 18:41:50
Eccentricity: 0.0003661
inclination: 51.6385°
perigee height: 393 km
apogee height: 398 km
right ascension of ascending node: 108.1113°
argument of perigee: 308.9204°
revolutions per day: 15.57090945
mean anomaly at epoch: 51.1461°
orbit number at epoch: 5578

The dashed part of the orbit path shows where the satellite is in the earth's shadow,  

DLR